Total_Precipitation_Accumulation
0.53 0.51 0.63 0.98 0.95 1.46 1.88 1.86 2.00 2.27 2.18 1.84 1.51 1.30 1.19 1.54 1.63 1.21 0.84 0.75 0.77 0.74 0.76 0.79 0.74 0.91 1.09 1.05 1.07 1.08 1.03 1.00 0.84 0.48 0.45 0.54 0.66 0.62 0.48 0.44 0.36 0.38 0.26
1.36 1.42 1.22 1.53 1.74 1.81 2.17 2.11 1.68 2.40 2.47 2.28 2.27 1.68 0.98 0.90 1.01 1.04 0.83 0.81 0.69 0.68 0.65 0.77 0.70 0.85 0.87 0.79 0.79 0.67 0.66 0.68 0.68 0.48 0.48 0.49 0.45 0.48 0.47 0.43 0.35 0.31 0.24
1.88 1.92 1.56 1.85 2.07 2.42 2.24 2.04 1.97 1.76 2.18 2.18 2.19 1.75 0.82 0.59 0.51 0.47 0.53 0.50 0.58 0.58 0.52 0.48 0.45 0.58 0.55 0.54 0.57 0.52 0.47 0.53 0.62 0.64 0.61 0.61 0.60 0.54 0.56 0.57 0.47 0.30 0.22
1.25 1.15 1.35 1.43 1.18 1.27 1.23 1.33 1.48 1.57 1.45 1.26 1.33 0.99 0.59 0.38 0.33 0.35 0.33 0.32 0.34 0.39 0.46 0.43 0.40 0.38 0.34 0.42 0.55 0.54 0.54 0.57 0.59 0.67 0.64 0.59 0.55 0.48 0.45 0.53 0.69 0.69 0.60
1.22 0.99 0.91 0.93 0.87 0.61 0.59 0.70 1.05 1.07 1.14 1.34 1.35 1.05 0.55 0.31 0.31 0.30 0.25 0.24 0.24 0.24 0.26 0.29 0.36 0.54 0.67 0.66 0.77 0.71 0.72 0.76 0.77 0.79 0.73 0.68 0.62 0.58 0.53 0.48 0.72 0.93 1.05
0.95 0.86 0.78 0.67 0.61 0.59 0.61 0.52 0.61 0.79 0.80 0.74 0.83 1.00 0.94 0.48 0.49 0.33 0.22 0.18 0.24 0.25 0.23 0.23 0.34 0.74 0.61 0.83 0.91 1.03 0.98 1.01 0.90 0.86 0.91 0.93 0.79 0.81 0.83 0.87 0.97 1.14 1.21
0.84 0.80 0.60 0.50 0.47 0.39 0.31 0.32 0.36 0.50 0.64 0.72 0.64 0.50 0.44 0.43 0.54 0.31 0.27 0.15 0.17 0.21 0.23 0.25 0.29 0.40 0.62 0.45 0.88 0.97 1.03 1.26 1.15 1.06 1.15 0.99 0.99 0.92 0.98 1.03 0.91 0.94 0.97
0.68 0.67 0.63 0.45 0.36 0.38 0.30 0.32 0.37 0.46 0.46 0.37 0.31 0.27 0.25 0.27 0.39 0.26 0.25 0.16 0.18 0.23 0.27 0.27 0.32 0.38 0.56 0.61 0.61 0.76 0.74 0.84 0.97 0.94 0.85 0.78 0.79 0.83 0.76 0.77 0.90 1.09 1.11
0.63 0.65 0.62 0.55 0.45 0.50 0.58 0.66 0.58 0.40 0.36 0.32 0.24 0.17 0.19 0.21 0.30 0.24 0.27 0.18 0.30 0.31 0.28 0.36 0.48 0.42 0.85 0.75 0.51 0.53 0.58 0.61 0.93 0.94 0.89 0.99 0.98 0.98 0.88 0.91 1.03 1.14 1.13
0.78 0.75 0.72 0.65 0.72 0.76 0.66 0.62 0.60 0.46 0.39 0.35 0.35 0.30 0.45 0.25 0.45 0.33 0.29 0.19 0.29 0.34 0.39 0.43 0.72 0.46 0.75 0.63 0.57 0.51 0.60 0.53 0.55 0.65 0.70 0.72 0.77 0.97 1.12 0.84 0.87 1.30 1.28
1.13 0.99 1.16 1.02 0.78 0.65 0.63 0.53 0.67 0.66 0.54 0.58 0.64 0.57 0.52 0.66 0.63 0.64 0.48 0.24 0.28 0.38 0.46 0.51 0.75 1.37 1.04 1.05 0.92 0.82 1.26 1.16 1.25 0.99 0.96 1.00 0.96 0.95 1.05 1.16 1.16 1.37 1.45
1.57 1.45 1.18 1.44 1.25 1.04 0.91 0.81 0.64 0.80 1.08 1.07 0.99 0.88 0.80 0.81 1.23 1.10 0.97 1.20 1.41 1.15 1.31 1.34 1.57 1.62 1.49 1.71 1.77 2.05 1.98 1.71 1.49 1.56 1.51 1.47 1.54 1.46 1.23 1.08 1.07 1.13 1.10
1.21 1.48 1.56 1.53 1.78 1.63 1.49 1.32 1.18 1.00 0.99 1.15 1.29 1.36 1.25 1.05 1.38 1.69 1.52 1.65 1.75 1.50 1.89 2.23 2.26 2.04 1.85 1.94 2.21 2.24 2.14 2.04 2.04 2.05 1.97 1.76 1.45 1.25 1.18 1.08 0.91 0.76 0.77
0.70 0.82 1.03 1.35 1.60 1.82 1.94 1.93 1.78 1.73 1.65 1.66 1.71 1.83 1.78 1.67 1.50 1.67 1.91 2.02 2.22 2.45 2.84 2.98 2.94 2.76 2.68 2.67 2.62 2.38 2.11 2.01 1.82 1.55 1.26 1.05 0.95 0.87 0.91 0.97 1.17 1.06 1.11
0.32 0.35 0.43 0.68 0.98 1.33 1.81 2.30 2.36 2.52 2.45 2.26 2.20 2.11 2.23 2.49 2.91 2.80 2.61 2.54 2.60 2.61 2.53 2.62 2.51 2.20 1.92 1.68 1.43 1.27 1.16 1.06 0.98 0.87 0.86 0.80 0.81 0.89 0.92 0.84 0.88 0.85 0.96
0.30 0.33 0.40 0.41 0.59 0.84 1.19 1.69 2.35 2.74 2.70 2.72 2.86 2.79 3.10 3.30 3.36 3.04 2.89 2.85 2.76 2.47 2.13 1.92 1.75 1.60 1.43 1.27 1.13 0.96 0.86 0.95 0.83 0.82 0.92 0.90 0.91 0.93 0.96 0.94 0.97 0.99 0.97
0.63 0.64 0.69 0.71 0.72 0.85 1.03 1.28 1.85 2.42 2.67 2.95 3.01 3.03 3.01 3.14 2.97 2.84 2.72 2.56 2.36 1.97 2.02 1.93 1.79 1.63 1.43 1.24 1.15 1.18 1.22 1.16 1.02 1.00 1.03 1.09 1.13 1.16 1.24 1.07 1.01 0.94 0.95
1.20 1.27 1.33 1.53 1.62 1.69 1.76 1.87 1.90 1.95 1.93 1.99 2.00 1.85 1.80 1.78 1.74 1.77 1.80 1.73 1.88 1.81 1.80 1.75 1.73 1.69 1.61 1.54 1.51 1.43 1.36 1.32 1.29 1.25 1.14 1.04 1.02 1.03 1.03 0.99 1.00 0.98 0.94
0.75 0.92 0.98 0.98 0.90 0.81 0.82 0.84 0.87 0.92 0.97 1.04 0.97 0.87 0.89 0.85 0.78 0.74 0.71 0.90 1.06 1.17 1.30 1.34 1.36 1.33 1.32 1.33 1.37 1.39 1.41 1.42 1.36 1.29 1.28 1.26 1.23 1.12 1.08 1.03 0.99 0.93 0.85
0.69 0.73 0.61 0.61 0.62 0.57 0.51 0.46 0.43 0.40 0.40 0.40 0.44 0.53 0.45 0.38 0.35 0.39 0.47 0.57 0.66 0.71 0.75 0.79 0.84 0.86 0.88 0.90 0.95 1.01 1.01 1.02 1.09 1.10 1.12 1.14 1.17 1.15 1.14 1.07 1.01 0.99 0.90
0.69 0.65 0.52 0.44 0.41 0.37 0.32 0.28 0.26 0.28 0.27 0.23 0.22 0.16 0.14 0.27 0.33 0.34 0.38 0.43 0.43 0.44 0.48 0.51 0.54 0.56 0.57 0.60 0.59 0.60 0.63 0.66 0.70 0.77 0.78 0.83 0.88 0.89 0.87 0.88 0.84 0.76 0.68
0.40 0.35 0.31 0.29 0.27 0.24 0.21 0.17 0.18 0.17 0.16 0.17 0.19 0.18 0.22 0.30 0.26 0.22 0.21 0.23 0.25 0.29 0.32 0.38 0.40 0.39 0.41 0.46 0.49 0.49 0.46 0.46 0.50 0.54 0.52 0.55 0.60 0.63 0.65 0.63 0.62 0.60 0.56
0.27 0.25 0.20 0.18 0.17 0.16 0.16 0.16 0.19 0.19 0.19 0.21 0.20 0.17 0.15 0.21 0.22 0.21 0.19 0.18 0.18 0.20 0.20 0.24 0.24 0.21 0.19 0.25 0.33 0.41 0.43 0.39 0.41 0.44 0.43 0.39 0.39 0.44 0.48 0.50 0.49 0.50 0.45
0.18 0.17 0.17 0.16 0.15 0.16 0.17 0.19 0.23 0.28 0.30 0.28 0.24 0.23 0.22 0.21 0.22 0.21 0.19 0.17 0.15 0.13 0.12 0.15 0.16 0.16 0.14 0.15 0.16 0.20 0.24 0.26 0.32 0.35 0.43 0.39 0.30 0.28 0.35 0.36 0.36 0.36 0.36
0.16 0.19 0.20 0.22 0.24 0.28 0.31 0.32 0.29 0.23 0.23 0.24 0.23 0.23 0.18 0.17 0.17 0.18 0.17 0.16 0.14 0.12 0.11 0.11 0.10 0.08 0.09 0.12 0.13 0.10 0.11 0.19 0.26 0.29 0.34 0.29 0.24 0.23 0.27 0.30 0.28 0.28 0.27
0.17 0.20 0.22 0.24 0.29 0.28 0.29 0.25 0.22 0.18 0.20 0.18 0.18 0.17 0.16 0.14 0.12 0.11 0.10 0.11 0.12 0.11 0.08 0.08 0.08 0.07 0.08 0.09 0.13 0.13 0.10 0.14 0.19 0.24 0.33 0.29 0.21 0.17 0.20 0.25 0.25 0.27 0.21